Flag for U.S.A. Weather past 2 weeks in Lakewood, Colorado, U.S.A.

Now
73 °F

Passing clouds.


Feels Like: 74 °F
Forecast: 42 / 62 °F
Wind: 12 mph from Northwest

Location: Centennial Airport

Current Time: Mar 28, 2015 at 6:43:29 PM

Latest Report: Mar 28, 2015 at 5:53 PM


Visibility: 10 mi

Pressure: 29.80 "Hg

Humidity: 11%

Dew point: 16 °F

Location of LakewoodLocation

Historic Weather in Lakewood — Graph

°F

Lakewood temperature yesterday

Maximum temperature yesterday: 67 °F (at 2:53 PM)
Minimum temperature yesterday: 38 °F (at 4:53 AM)
Average temperature yesterday: 54 °F

Past Weeks' High & Low Weather Summary

 TemperatureHumidityPressure
High78 °F (Mar 16, 1:53 PM)100% (Mar 19, 8:53 AM)30.41 "Hg (Mar 19, 8:53 AM)
Low28 °F (Mar 26, 6:53 AM)7% (Mar 15, 1:53 PM)29.65 "Hg (Mar 23, 4:53 PM)
Average50 °F46%30.06 "Hg
* Reported Mar 13 4:53 PM — Mar 28 4:53 PM, Lakewood, Weather by CustomWeather, © 2015

Note: Actual official high and low records may vary slightly from our data, if they occured in-between our weather recording intervals... More about our weather records

Advertising

Lakewood weather history for previous 24 hours

 ConditionsComfort  
Time TempWeatherWind HumidityBarometerVisibility
4:53 PM
Sat, Mar 28
75 °FPassing clouds.18 mph11%29.80 "Hg10 mi
3:53 PM75 °FPassing clouds.7 mph12%29.82 "Hg10 mi
2:53 PM73 °FPassing clouds.8 mph13%29.83 "Hg10 mi
1:53 PM74 °FPassing clouds.7 mph14%29.86 "Hg10 mi
12:53 PM73 °FPassing clouds.12 mph16%29.90 "Hg10 mi
11:53 AM70 °FPassing clouds.5 mph17%29.93 "Hg10 mi
10:53 AM67 °FPassing clouds.6 mph20%29.94 "Hg10 mi
9:53 AM65 °FPassing clouds.9 mph23%29.98 "Hg10 mi
8:53 AM61 °FPassing clouds.10 mph29%29.97 "Hg10 mi
7:53 AM52 °FPassing clouds.7 mph47%30.00 "Hg10 mi
6:53 AM47 °FPassing clouds.7 mph46%30.00 "Hg10 mi
5:53 AM51 °FClear.12 mph38%29.98 "Hg10 mi
4:53 AM50 °FClear.12 mph39%29.97 "Hg10 mi
3:53 AM49 °FClear.12 mph43%29.97 "Hg10 mi
2:53 AM50 °FClear.12 mph41%29.98 "Hg10 mi
1:53 AM50 °FPassing clouds.13 mph41%30.00 "Hg10 mi
12:53 AM50 °FPassing clouds.12 mph41%30.03 "Hg10 mi
11:53 PM
Fri, Mar 27
50 °FPassing clouds.12 mph41%30.05 "Hg10 mi
10:53 PM56 °FPartly cloudy.12 mph32%30.03 "Hg10 mi
9:53 PM52 °FPassing clouds.6 mph40%30.08 "Hg10 mi
8:53 PM59 °FPassing clouds.10 mph28%30.06 "Hg10 mi
7:53 PM61 °FPassing clouds.12 mph26%30.06 "Hg10 mi
6:53 PM64 °FScattered clouds.17 mph23%30.05 "Hg10 mi
Weather by CustomWeather, © 2015

See weather overviewHow to use our weather pages